Location: Elk Horn Observatory
(36.6768°N, 80.8309°W)
Time: 17:32:29
(UTC-05:00)

Envisat - Visible Passes

Search period start: 13 November 2018 00:00
Search period end: 23 November 2018 00:00
Orbit: 764 x 766 km, 98.2° (Epoch: 13 November)

Date Brightness Start Highest point End Pass type
(mag) Time Alt. Az. Time Alt. Az. Time Alt. Az.
13 Nov 3.9 18:27:30 17° ESE 18:30:04 25° ENE 18:34:11 10° NNE visible
13 Nov 4.5 20:07:43 30° WSW 20:08:53 33° W 20:13:28 10° NNW visible
14 Nov 4.7 17:52:14 10° E 17:53:46 11° ENE 17:55:18 10° NE visible
14 Nov 3.0 19:30:49 52° S 19:32:04 79° WSW 19:37:10 10° NNW visible
15 Nov 3.2 18:53:51 34° ESE 18:55:26 44° ENE 19:00:15 10° N visible
15 Nov 5.4 20:34:05 18° WSW 20:34:37 18° W 20:38:06 10° NW visible
16 Nov 4.2 18:16:54 16° E 18:18:59 20° ENE 18:22:37 10° NNE visible
16 Nov 4.0 19:52:52 10° S 19:57:40 43° W 20:02:29 10° NNW visible
17 Nov 2.8 19:15:50 10° SSE 19:20:53 81° ENE 19:25:58 10° N visible
18 Nov 3.5 18:43:09 31° E 18:44:19 35° ENE 18:48:52 10° N visible
18 Nov 5.1 20:23:22 24° W 20:23:22 24° W 20:27:23 10° NW visible
19 Nov 4.4 18:06:09 14° E 18:07:55 16° ENE 18:10:56 10° NNE visible
19 Nov 3.5 19:41:29 10° S 19:46:26 55° W 19:51:26 10° NNW visible
20 Nov 2.9 19:04:44 10° SSE 19:09:44 63° ENE 19:14:45 10° N visible
20 Nov 5.8 20:49:34 13° W 20:49:34 13° W 20:51:20 10° WNW visible
21 Nov 3.8 18:32:18 26° E 18:33:12 28° ENE 18:37:27 10° NNE visible
21 Nov 4.7 20:07:40 10° SSW 20:12:32 30° W 20:16:32 10° NW visible
22 Nov 6.5 06:42:39 10° ENE 06:43:48 11° E 06:44:58 10° ESE visible
22 Nov 4.6 17:55:16 11° E 17:56:52 13° ENE 17:58:58 10° NE visible
22 Nov 3.1 19:30:11 10° S 19:35:29 70° WNW 19:40:19 10° NNW visible
